| time (UTC) | temp F | wind direction | speed knots | gust knots | rain 1hr in | rain 24hr in | rain mn in | humidity % | barometer mb |
| 20260505102004 | 55 | 139 | 0.0 | 6.1 | 0.00 | 0.00 | 0.00 | 94 | 1009.4 |
| 20260505101503 | 55 | 162 | 1.7 | 6.1 | 0.00 | 0.00 | 0.00 | 94 | 1009.5 |
| 20260505100958 | 55 | 163 | 1.7 | 2.6 | 0.00 | 0.00 | 0.00 | 93 | 1009.2 |
| 20260505100455 | 55 | 146 | 0.9 | 4.3 | 0.00 | 0.00 | 0.00 | 93 | 1009.1 |
| 20260505095951 | 55 | 159 | 3.5 | 4.3 | 0.00 | 0.00 | 0.00 | 93 | 1009.1 |
| 20260505095448 | 55 | 149 | 0.9 | 4.3 | 0.00 | 0.00 | 0.00 | 94 | 1009.2 |
| 20260505094944 | 55 | 140 | 0.9 | 1.7 | 0.00 | 0.00 | 0.00 | 94 | 1009.2 |
| 20260505094441 | 54 | 162 | 1.7 | 5.2 | 0.00 | 0.00 | 0.00 | 94 | 1009.2 |
| 20260505093937 | 54 | 147 | 0.0 | 4.3 | 0.00 | 0.00 | 0.00 | 94 | 1009.2 |
| 20260505093434 | 54 | 171 | 2.6 | 2.6 | 0.00 | 0.00 | 0.00 | 94 | 1009.2 |
| 20260505092931 | 54 | 135 | 0.9 | 2.6 | 0.00 | 0.00 | 0.00 | 94 | 1009.4 |
| 20260505092429 | 54 | 171 | 0.0 | 4.3 | 0.00 | 0.00 | 0.00 | 94 | 1009.1 |
| 20260505091926 | 54 | 147 | 0.0 | 1.7 | 0.00 | 0.00 | 0.00 | 94 | 1009.0 |
| 20260505091423 | 55 | 149 | 0.9 | 2.6 | 0.00 | 0.00 | 0.00 | 94 | 1009.3 |
| 20260505090921 | 55 | 164 | 4.3 | 8.7 | 0.00 | 0.00 | 0.00 | 94 | 1009.0 |
| 20260505090420 | 55 | 173 | 2.6 | 6.1 | 0.00 | 0.00 | 0.00 | 94 | 1009.2 |
| 20260505085917 | 55 | 152 | 4.3 | 6.1 | 0.00 | 0.00 | 0.00 | 94 | 1009.2 |
| 20260505085415 | 55 | 176 | 1.7 | 4.3 | 0.00 | 0.00 | 0.00 | 94 | 1009.5 |
| 20260505084913 | 55 | 134 | 3.5 | 5.2 | 0.00 | 0.00 | 0.00 | 94 | 1009.3 |
| 20260505084410 | 55 | 159 | 2.6 | 5.2 | 0.00 | 0.00 | 0.00 | 94 | 1009.2 |
| 20260505083908 | 55 | 169 | 1.7 | 2.6 | 0.00 | 0.00 | 0.00 | 93 | 1009.0 |
| 20260505083406 | 55 | 177 | 0.9 | 7.8 | 0.00 | 0.00 | 0.00 | 93 | 1009.0 |
| 20260505082901 | 55 | 184 | 2.6 | 6.1 | 0.00 | 0.00 | 0.00 | 93 | 1009.0 |
| 20260505082357 | 55 | 145 | 1.7 | 2.6 | 0.00 | 0.00 | 0.00 | 93 | 1009.2 |
| 20260505081854 | 55 | 167 | 1.7 | 7.8 | 0.00 | 0.00 | 0.00 | 93 | 1009.2 |
| 20260505081351 | 55 | 158 | 2.6 | 5.2 | 0.00 | 0.00 | 0.00 | 92 | 1009.1 |
| 20260505080848 | 55 | 152 | 3.5 | 5.2 | 0.00 | 0.00 | 0.00 | 92 | 1009.3 |
| 20260505080344 | 55 | 145 | 3.5 | 5.2 | 0.00 | 0.00 | 0.00 | 92 | 1009.0 |
| 20260505075839 | 55 | 127 | 3.5 | 5.2 | 0.00 | 0.00 | 0.00 | 92 | 1009.0 |
| 20260505075337 | 55 | 171 | 2.6 | 6.1 | 0.00 | 0.00 | 0.00 | 92 | 1009.0 |
| 20260505074834 | 55 | 170 | 2.6 | 5.2 | 0.00 | 0.00 | 0.00 | 92 | 1008.9 |
| 20260505074331 | 55 | 170 | 2.6 | 7.8 | 0.00 | 0.00 | 0.00 | 92 | 1009.1 |
| 20260505073828 | 55 | 183 | 2.6 | 6.1 | 0.00 | 0.00 | 0.00 | 92 | 1009.0 |
| 20260505073326 | 55 | 203 | 2.6 | 4.3 | 0.00 | 0.00 | 0.00 | 92 | 1009.0 |
| 20260505072823 | 55 | 210 | 6.1 | 8.7 | 0.00 | 0.00 | 0.00 | 92 | 1008.8 |
| 20260505072319 | 55 | 159 | 2.6 | 4.3 | 0.00 | 0.00 | 0.00 | 92 | 1008.9 |
| 20260505071815 | 55 | 151 | 2.6 | 11.3 | 0.00 | 0.00 | 0.00 | 91 | 1009.3 |
| 20260505071311 | 55 | 141 | 2.6 | 5.2 | 0.00 | 0.00 | 0.00 | 91 | 1009.1 |
| 20260505070809 | 55 | 189 | 4.3 | 5.2 | 0.00 | 0.00 | 0.00 | 91 | 1009.1 |
| 20260505070306 | 55 | 143 | 1.7 | 7.8 | 0.00 | 0.00 | 0.00 | 91 | 1008.9 |
| 20260505065800 | 55 | 151 | 2.6 | 6.1 | 0.00 | 0.00 | 0.00 | 91 | 1008.9 |
| 20260505065258 | 55 | 176 | 2.6 | 5.2 | 0.00 | 0.00 | 0.00 | 90 | 1009.3 |
| 20260505064755 | 55 | 209 | 2.6 | 2.6 | 0.00 | 0.00 | 0.00 | 90 | 1009.0 |
| 20260505064252 | 56 | 163 | 2.6 | 7.0 | 0.00 | 0.00 | 0.00 | 90 | 1009.2 |
| 20260505063750 | 56 | 171 | 2.6 | 6.1 | 0.00 | 0.00 | 0.00 | 90 | 1008.9 |
| 20260505063246 | 56 | 179 | 3.5 | 4.3 | 0.00 | 0.00 | 0.00 | 90 | 1009.3 |
| 20260505062742 | 56 | 121 | 2.6 | 5.2 | 0.00 | 0.00 | 0.00 | 90 | 1009.2 |
| 20260505062240 | 56 | 226 | 1.7 | 8.7 | 0.00 | 0.00 | 0.00 | 90 | 1009.3 |
| 20260505061737 | 56 | 170 | 4.3 | 7.0 | 0.00 | 0.00 | 0.00 | 90 | 1009.0 |
| 20260505061235 | 56 | 146 | 2.6 | 7.0 | 0.00 | 0.00 | 0.00 | 90 | 1009.3 |
| 20260505060732 | 56 | 147 | 3.5 | 5.2 | 0.00 | 0.00 | 0.00 | 90 | 1009.2 |
| 20260505060229 | 56 | 161 | 2.6 | 4.3 | 0.00 | 0.00 | 0.00 | 90 | 1009.5 |
| 20260505055724 | 56 | 183 | 3.5 | 6.1 | 0.00 | 0.00 | 0.00 | 90 | 1009.6 |
| 20260505055221 | 56 | 157 | 2.6 | 7.8 | 0.00 | 0.00 | 0.00 | 89 | 1009.6 |
| 20260505054718 | 56 | 162 | 0.9 | 7.0 | 0.00 | 0.00 | 0.00 | 89 | 1009.3 |
| 20260505054216 | 56 | 153 | 1.7 | 6.1 | 0.00 | 0.00 | 0.00 | 89 | 1009.7 |
| 20260505053714 | 56 | 224 | 4.3 | 5.2 | 0.00 | 0.00 | 0.00 | 89 | 1009.3 |
| 20260505053210 | 56 | 175 | 2.6 | 5.2 | 0.00 | 0.00 | 0.00 | 89 | 1009.4 |
| 20260505052707 | 56 | 139 | 1.7 | 2.6 | 0.00 | 0.00 | 0.00 | 88 | 1009.5 |
| 20260505052204 | 56 | 167 | 3.5 | 7.8 | 0.00 | 0.00 | 0.00 | 88 | 1009.5 |
| 20260505051701 | 56 | 163 | 3.5 | 5.2 | 0.00 | 0.00 | 0.00 | 87 | 1009.6 |
| 20260505051159 | 56 | 185 | 2.6 | 6.1 | 0.00 | 0.00 | 0.00 | 87 | 1009.5 |
| 20260505050656 | 56 | 234 | 4.3 | 5.2 | 0.00 | 0.00 | 0.00 | 86 | 1009.7 |
| 20260505050155 | 56 | 181 | 2.6 | 5.2 | 0.00 | 0.00 | 0.00 | 85 | 1009.9 |
| 20260505041625 | 57 | 168 | 3.5 | 7.8 | 0.00 | 0.00 | 0.00 | 80 | 1010.0 |
| 20260505041122 | 58 | 149 | 2.6 | 4.3 | 0.00 | 0.00 | 0.00 | 79 | 1010.1 |
| 20260505040619 | 58 | 125 | 2.6 | 2.6 | 0.00 | 0.00 | 0.00 | 79 | 1009.9 |
| 20260505040116 | 58 | 173 | 3.5 | 6.1 | 0.00 | 0.00 | 0.00 | 78 | 1009.8 |
| 20260505035613 | 58 | 149 | 2.6 | 6.1 | 0.00 | 0.00 | 0.00 | 78 | 1009.9 |
| 20260505035109 | 58 | 160 | 2.6 | 5.2 | 0.00 | 0.00 | 0.00 | 78 | 1010.0 |
| 20260505034606 | 58 | 160 | 1.7 | 5.2 | 0.00 | 0.00 | 0.00 | 78 | 1009.9 |
| 20260505034103 | 58 | 155 | 2.6 | 4.3 | 0.00 | 0.00 | 0.00 | 79 | 1010.0 |
| 20260505033559 | 58 | 175 | 4.3 | 7.0 | 0.00 | 0.00 | 0.00 | 79 | 1010.0 |
| 20260505033058 | 57 | 156 | 1.7 | 5.2 | 0.00 | 0.00 | 0.00 | 79 | 1009.7 |
| 20260505032555 | 58 | 167 | 2.6 | 5.2 | 0.00 | 0.00 | 0.00 | 78 | 1010.0 |
| 20260505032051 | 57 | 167 | 5.2 | 6.1 | 0.00 | 0.00 | 0.00 | 79 | 1009.8 |
| 20260505031549 | 57 | 188 | 5.2 | 7.0 | 0.00 | 0.00 | 0.00 | 78 | 1010.0 |
| 20260505031045 | 57 | 178 | 4.3 | 8.7 | 0.00 | 0.00 | 0.00 | 79 | 1010.0 |
| 20260505030542 | 57 | 149 | 1.7 | 4.3 | 0.00 | 0.00 | 0.00 | 78 | 1010.1 |
| 20260505030038 | 57 | 154 | 2.6 | 4.3 | 0.00 | 0.00 | 0.00 | 78 | 1010.0 |
| 20260505025534 | 57 | 165 | 2.6 | 8.7 | 0.00 | 0.00 | 0.00 | 77 | 1010.1 |
| 20260505025033 | 57 | 193 | 1.7 | 4.3 | 0.00 | 0.00 | 0.00 | 77 | 1009.9 |
| 20260505024530 | 57 | 159 | 0.9 | 6.1 | 0.00 | 0.00 | 0.00 | 76 | 1010.2 |
| 20260505024027 | 57 | 144 | 0.9 | 4.3 | 0.00 | 0.00 | 0.00 | 76 | 1009.9 |
| 20260505023524 | 57 | 194 | 6.1 | 7.8 | 0.00 | 0.00 | 0.00 | 76 | 1009.9 |
| 20260505023021 | 58 | 177 | 1.7 | 6.1 | 0.00 | 0.00 | 0.00 | 76 | 1010.0 |
| 20260505022519 | 58 | 210 | 2.6 | 4.3 | 0.00 | 0.00 | 0.00 | 75 | 1009.9 |
| 20260505022016 | 58 | 151 | 0.9 | 4.3 | 0.00 | 0.00 | 0.00 | 75 | 1010.0 |
| 20260505021512 | 58 | 168 | 1.7 | 5.2 | 0.00 | 0.00 | 0.00 | 75 | 1010.1 |
| 20260505021009 | 58 | 173 | 1.7 | 5.2 | 0.00 | 0.00 | 0.00 | 75 | 1010.0 |
| 20260505020503 | 58 | 253 | 2.6 | 6.1 | 0.00 | 0.00 | 0.00 | 75 | 1010.0 |
| 20260505020000 | 58 | 156 | 1.7 | 4.3 | 0.00 | 0.00 | 0.00 | 75 | 1010.2 |
| 20260505015457 | 58 | 140 | 2.6 | 7.0 | 0.00 | 0.00 | 0.00 | 75 | 1010.0 |
| 20260505014954 | 58 | 178 | 1.7 | 7.8 | 0.00 | 0.00 | 0.00 | 75 | 1010.2 |
| 20260505014451 | 58 | 158 | 1.7 | 7.0 | 0.00 | 0.00 | 0.00 | 75 | 1010.0 |
| 20260505013948 | 58 | 145 | 4.3 | 6.1 | 0.00 | 0.00 | 0.00 | 75 | 1010.3 |
| 20260505013445 | 57 | 152 | 3.5 | 6.1 | 0.00 | 0.00 | 0.00 | 75 | 1010.1 |
| 20260505012943 | 58 | 154 | 2.6 | 7.0 | 0.00 | 0.00 | 0.00 | 74 | 1009.7 |
| 20260505012441 | 57 | 199 | 3.5 | 5.2 | 0.00 | 0.00 | 0.00 | 74 | 1010.0 |
| 20260505011937 | 57 | 174 | 1.7 | 1.7 | 0.00 | 0.00 | 0.00 | 74 | 1009.9 |
| 20260505011433 | 58 | 163 | 1.7 | 2.6 | 0.00 | 0.00 | 0.00 | 74 | 1009.9 |
| 20260505010930 | 58 | 132 | 2.6 | 7.8 | 0.00 | 0.00 | 0.00 | 74 | 1009.6 |
| 20260505010426 | 58 | 151 | 2.6 | 5.2 | 0.00 | 0.00 | 0.00 | 73 | 1009.5 |
| 20260505005922 | 58 | 169 | 0.9 | 8.7 | 0.00 | 0.00 | 0.00 | 73 | 1009.4 |
| 20260505005419 | 58 | 75 | 0.9 | 9.6 | 0.00 | 0.00 | 0.00 | 73 | 1009.4 |
| 20260505004917 | 58 | 238 | 1.7 | 7.0 | 0.00 | 0.00 | 0.00 | 73 | 1009.5 |
| 20260505004413 | 57 | 164 | 2.6 | 5.2 | 0.00 | 0.00 | 0.00 | 74 | 1009.3 |
| 20260505003910 | 57 | 172 | 3.5 | 5.2 | 0.00 | 0.00 | 0.00 | 74 | 1009.4 |
| 20260505003407 | 57 | 194 | 2.6 | 8.7 | 0.00 | 0.00 | 0.00 | 75 | 1009.1 |
| 20260505002903 | 57 | 154 | 3.5 | 5.2 | 0.00 | 0.00 | 0.00 | 77 | 1009.3 |
| 20260505002400 | 57 | 149 | 0.9 | 8.7 | 0.00 | 0.00 | 0.00 | 77 | 1009.1 |
| 20260505001859 | 57 | 164 | 5.2 | 7.0 | 0.00 | 0.00 | 0.00 | 78 | 1009.1 |
| 20260505001355 | 57 | 138 | 0.0 | 8.7 | 0.00 | 0.00 | 0.00 | 78 | 1009.1 |
| 20260505000853 | 57 | 163 | 3.5 | 8.7 | 0.00 | 0.00 | 0.00 | 77 | 1008.9 |
| 20260505000351 | 57 | 180 | 3.5 | 7.0 | 0.00 | 0.00 | 0.00 | 77 | 1008.9 |
| 20260504235847 | 57 | 169 | 1.7 | 13.9 | 0.00 | 0.00 | 0.00 | 76 | 1008.7 |
| 20260504235344 | 57 | 181 | 7.8 | 9.6 | 0.00 | 0.00 | 0.00 | 75 | 1008.7 |
| 20260504234840 | 57 | 125 | 5.2 | 7.8 | 0.00 | 0.00 | 0.00 | 74 | 1008.9 |
| 20260504234338 | 58 | 132 | 4.3 | 6.1 | 0.00 | 0.00 | 0.00 | 73 | 1008.6 |
| 20260504233834 | 58 | 104 | 3.5 | 6.1 | 0.00 | 0.00 | 0.00 | 73 | 1008.6 |
| 20260504233330 | 58 | 178 | 2.6 | 7.0 | 0.00 | 0.00 | 0.00 | 72 | 1008.6 |
| 20260504232827 | 58 | 134 | 2.6 | 7.0 | 0.00 | 0.00 | 0.00 | 71 | 1008.5 |
| 20260504232324 | 59 | 146 | 6.1 | 9.6 | 0.00 | 0.00 | 0.00 | 70 | 1008.6 |
| 20260504231821 | 59 | 131 | 4.3 | 8.7 | 0.00 | 0.00 | 0.00 | 70 | 1008.4 |
| 20260504231317 | 59 | 131 | 2.6 | 9.6 | 0.00 | 0.00 | 0.00 | 70 | 1008.2 |
| 20260504230813 | 59 | 148 | 5.2 | 11.3 | 0.00 | 0.00 | 0.00 | 69 | 1008.5 |
| 20260504230312 | 59 | 196 | 5.2 | 9.6 | 0.00 | 0.00 | 0.00 | 69 | 1008.1 |
| 20260504225810 | 59 | 161 | 3.5 | 7.0 | 0.00 | 0.00 | 0.00 | 69 | 1008.0 |
| 20260504225306 | 60 | 173 | 4.3 | 7.8 | 0.00 | 0.00 | 0.00 | 67 | 1008.4 |
| 20260504224803 | 60 | 144 | 3.5 | 7.8 | 0.00 | 0.00 | 0.00 | 67 | 1008.4 |
| 20260504224301 | 60 | 134 | 3.5 | 8.7 | 0.00 | 0.00 | 0.00 | 66 | 1008.1 |
| 20260504223757 | 60 | 203 | 3.5 | 7.0 | 0.00 | 0.00 | 0.00 | 66 | 1008.4 |
| 20260504223252 | 60 | 196 | 4.3 | 7.8 | 0.00 | 0.00 | 0.00 | 65 | 1008.4 |
| 20260504222749 | 61 | 140 | 0.9 | 7.0 | 0.00 | 0.00 | 0.00 | 65 | 1008.4 |
| 20260504222246 | 61 | 128 | 3.5 | 7.0 | 0.00 | 0.00 | 0.00 | 63 | 1008.6 |
| 20260504221744 | 61 | 184 | 2.6 | 8.7 | 0.00 | 0.00 | 0.00 | 63 | 1008.3 |
| 20260504221241 | 62 | 132 | 1.7 | 9.6 | 0.00 | 0.00 | 0.00 | 62 | 1008.6 |
| 20260504220737 | 62 | 147 | 4.3 | 6.1 | 0.00 | 0.00 | 0.00 | 62 | 1008.3 |
| 20260504220235 | 63 | 224 | 6.1 | 9.6 | 0.00 | 0.00 | 0.00 | 61 | 1008.6 |
| 20260504215732 | 62 | 164 | 2.6 | 11.3 | 0.00 | 0.00 | 0.00 | 61 | 1008.7 |
| 20260504215228 | 63 | 96 | 3.5 | 6.1 | 0.00 | 0.00 | 0.00 | 61 | 1008.7 |
| 20260504214724 | 63 | 154 | 4.3 | 8.7 | 0.00 | 0.00 | 0.00 | 61 | 1008.6 |
| 20260504214221 | 63 | 211 | 4.3 | 15.6 | 0.00 | 0.00 | 0.00 | 59 | 1008.7 |
| 20260504213712 | 64 | 227 | 2.6 | 5.2 | 0.00 | 0.00 | 0.00 | 58 | 1008.7 |
| 20260504213208 | 64 | 177 | 3.5 | 7.0 | 0.00 | 0.00 | 0.00 | 57 | 1008.7 |
| 20260504212706 | 64 | 141 | 3.5 | 8.7 | 0.00 | 0.00 | 0.00 | 57 | 1008.6 |
| 20260504212203 | 64 | 157 | 4.3 | 11.3 | 0.00 | 0.00 | 0.00 | 57 | 1008.4 |
| 20260504211700 | 64 | 154 | 3.5 | 8.7 | 0.00 | 0.00 | 0.00 | 57 | 1008.7 |
| 20260504211155 | 65 | 140 | 3.5 | 6.1 | 0.00 | 0.00 | 0.00 | 57 | 1008.8 |
| 20260504210653 | 65 | 159 | 2.6 | 7.8 | 0.00 | 0.00 | 0.00 | 57 | 1008.6 |
| 20260504210150 | 65 | 147 | 4.3 | 8.7 | 0.00 | 0.00 | 0.00 | 56 | 1008.5 |
| 20260504205648 | 65 | 172 | 6.1 | 8.7 | 0.00 | 0.00 | 0.00 | 56 | 1008.6 |
| 20260504205144 | 65 | 199 | 4.3 | 11.3 | 0.00 | 0.00 | 0.00 | 55 | 1008.6 |
| 20260504204643 | 66 | 292 | 1.7 | 7.8 | 0.00 | 0.00 | 0.00 | 57 | 1008.7 |
| 20260504204141 | 66 | 141 | 2.6 | 5.2 | 0.00 | 0.00 | 0.00 | 54 | 1008.6 |
| 20260504203640 | 66 | 197 | 7.8 | 8.7 | 0.00 | 0.00 | 0.00 | 54 | 1008.9 |
| 20260504203137 | 66 | 204 | 2.6 | 11.3 | 0.00 | 0.00 | 0.00 | 53 | 1008.6 |
| 20260504202637 | 67 | 166 | 2.6 | 8.7 | 0.00 | 0.00 | 0.00 | 52 | 1008.7 |
| 20260504202134 | 66 | 167 | 1.7 | 7.0 | 0.00 | 0.00 | 0.00 | 53 | 1008.5 |
| 20260504201631 | 67 | 203 | 4.3 | 8.7 | 0.00 | 0.00 | 0.00 | 52 | 1008.8 |
| 20260504201129 | 66 | 159 | 0.9 | 9.6 | 0.00 | 0.00 | 0.00 | 53 | 1008.7 |
| 20260504200626 | 66 | 138 | 6.1 | 11.3 | 0.00 | 0.00 | 0.00 | 51 | 1008.8 |
| 20260504200122 | 68 | 176 | 8.7 | 12.2 | 0.00 | 0.00 | 0.00 | 50 | 1008.8 |
| 20260504195618 | 68 | 247 | 1.7 | 13.0 | 0.00 | 0.00 | 0.00 | 50 | 1008.9 |
| 20260504195115 | 68 | 214 | 4.3 | 7.0 | 0.00 | 0.00 | 0.00 | 51 | 1008.7 |
| 20260504194612 | 69 | 184 | 2.6 | 6.1 | 0.00 | 0.00 | 0.00 | 49 | 1008.6 |
| 20260504194107 | 68 | 172 | 0.0 | 7.8 | 0.00 | 0.00 | 0.00 | 50 | 1009.1 |
| 20260504193604 | 68 | 161 | 5.2 | 9.6 | 0.00 | 0.00 | 0.00 | 47 | 1008.9 |
| 20260504193103 | 68 | 190 | 4.3 | 11.3 | 0.00 | 0.00 | 0.00 | 48 | 1008.8 |
| 20260504192600 | 68 | 131 | 0.9 | 9.6 | 0.00 | 0.00 | 0.00 | 49 | 1008.8 |
| 20260504192058 | 68 | 134 | 1.7 | 7.8 | 0.00 | 0.00 | 0.00 | 49 | 1008.8 |
| 20260504191556 | 67 | 124 | 2.6 | 7.8 | 0.00 | 0.00 | 0.00 | 49 | 1009.0 |
| 20260504191052 | 68 | 158 | 4.3 | 8.7 | 0.00 | 0.00 | 0.00 | 49 | 1008.9 |
| 20260504190548 | 69 | 145 | 4.3 | 6.1 | 0.00 | 0.00 | 0.00 | 48 | 1009.0 |
| 20260504190044 | 68 | 152 | 3.5 | 7.8 | 0.00 | 0.00 | 0.00 | 49 | 1008.9 |
| 20260504185542 | 68 | 80 | 2.6 | 9.6 | 0.00 | 0.00 | 0.00 | 46 | 1009.3 |
| 20260504185038 | 68 | 134 | 0.9 | 11.3 | 0.00 | 0.00 | 0.00 | 46 | 1009.3 |
| 20260504184534 | 69 | 174 | 3.5 | 12.2 | 0.00 | 0.00 | 0.00 | 45 | 1009.1 |
| 20260504184029 | 68 | 144 | 5.2 | 7.0 | 0.00 | 0.00 | 0.00 | 46 | 1009.4 |
| 20260504183527 | 68 | 297 | 2.6 | 7.8 | 0.00 | 0.00 | 0.00 | 45 | 1009.4 |
| 20260504183025 | 67 | 232 | 6.1 | 11.3 | 0.00 | 0.00 | 0.00 | 45 | 1009.2 |
| 20260504182521 | 68 | 153 | 2.6 | 5.2 | 0.00 | 0.00 | 0.00 | 46 | 1009.8 |
| 20260504182019 | 68 | 194 | 2.6 | 6.1 | 0.00 | 0.00 | 0.00 | 45 | 1009.6 |
| 20260504181515 | 68 | 134 | 1.7 | 7.0 | 0.00 | 0.00 | 0.00 | 49 | 1009.5 |
| 20260504181014 | 67 | 135 | 7.8 | 11.3 | 0.00 | 0.00 | 0.00 | 46 | 1009.8 |
| 20260504180512 | 67 | 24 | 4.3 | 9.6 | 0.00 | 0.00 | 0.00 | 46 | 1009.6 |
| 20260504180010 | 68 | 164 | 1.7 | 8.7 | 0.00 | 0.00 | 0.00 | 47 | 1010.0 |
| 20260504175508 | 67 | 171 | 0.9 | 6.1 | 0.00 | 0.00 | 0.00 | 45 | 1009.8 |
| 20260504175004 | 67 | 226 | 2.6 | 7.0 | 0.00 | 0.00 | 0.00 | 47 | 1010.1 |
| 20260504174502 | 67 | 232 | 4.3 | 7.8 | 0.00 | 0.00 | 0.00 | 46 | 1010.0 |
| 20260504173959 | 67 | 286 | 6.1 | 11.3 | 0.00 | 0.00 | 0.00 | 44 | 1010.2 |
| 20260504173456 | 68 | 257 | 5.2 | 9.6 | 0.00 | 0.00 | 0.00 | 45 | 1009.9 |
| 20260504172953 | 68 | 101 | 1.7 | 5.2 | 0.00 | 0.00 | 0.00 | 47 | 1009.8 |
| 20260504172449 | 67 | 167 | 2.6 | 7.8 | 0.00 | 0.00 | 0.00 | 46 | 1010.1 |
| 20260504171946 | 68 | 316 | 4.3 | 7.8 | 0.00 | 0.00 | 0.00 | 46 | 1010.3 |
| 20260504171443 | 67 | 359 | 4.3 | 13.0 | 0.00 | 0.00 | 0.00 | 46 | 1010.1 |
| 20260504170940 | 67 | 199 | 1.7 | 5.2 | 0.00 | 0.00 | 0.00 | 48 | 1010.1 |
| 20260504170436 | 67 | 144 | 4.3 | 9.6 | 0.00 | 0.00 | 0.00 | 45 | 1010.2 |
| 20260504160355 | 67 | 56 | 1.7 | 11.3 | 0.00 | 0.00 | 0.00 | 39 | 1010.8 |
| 20260504150820 | 66 | 307 | 2.6 | 6.1 | 0.00 | 0.00 | 0.00 | 38 | 1011.7 |
| 20260504150316 | 66 | 271 | 4.3 | 7.8 | 0.00 | 0.00 | 0.00 | 39 | 1011.4 |
| 20260504141247 | 63 | 256 | 2.6 | 7.0 | 0.00 | 0.00 | 0.00 | 46 | 1011.9 |
| 20260504140743 | 63 | 24 | 1.7 | 5.2 | 0.00 | 0.00 | 0.00 | 45 | 1011.8 |
| 20260504140239 | 63 | 131 | 1.7 | 6.1 | 0.00 | 0.00 | 0.00 | 44 | 1011.7 |
| 20260504130707 | 60 | 184 | 1.7 | 4.3 | 0.00 | 0.00 | 0.00 | 51 | 1012.2 |
| 20260504130203 | 60 | 151 | 2.6 | 7.0 | 0.00 | 0.00 | 0.00 | 51 | 1012.4 |
| 20260504120127 | 56 | 156 | 0.0 | 0.9 | 0.00 | 0.00 | 0.00 | 55 | 1012.6 |
| 20260504110555 | 52 | 114 | 0.9 | 2.6 | 0.00 | 0.00 | 0.00 | 60 | 1012.9 |